User: anonymous   Login
Location: Kott?ru
(16.6209°N, 80.6208°E)
Time: 03:24:53
(UTC+00:00)
Language:

Ariane H10 - Orbit

View from above orbital plane
View from above orbital plane
View from above satellite
View from above satellite

Ground track
Ground track

The orbit data is extracted from the following two-line orbital elements,

1 21727U 91067B   20337.48590395  .00000589  00000-0  12392-2 0  9991
2 21727   3.8178 171.6696 7197185 100.3620 340.8844  2.32127448207322
Epoch (UTC): 02 December 2020 11:39:42
Eccentricity: 0.7197185
inclination: 3.8178°
perigee height: 375 km
apogee height: 35057 km
right ascension of ascending node: 171.6696°
argument of perigee: 100.3620°
revolutions per day: 2.32127448
mean anomaly at epoch: 340.8844°
orbit number at epoch: 20732

The dashed part of the orbit path shows where the satellite is in the earth's shadow,  

DLR